| time (UTC) | temp C | wind direction | speed KPH | gust KPH | rain 1hr cm | rain 24hr cm | rain mn cm | humidity % | barometer mb |
| 20260506062012 | 13 | 0 | 0.0 | 0.0 | 0.00 | 0.33 | 0.33 | 96 | 1004.8 |
| 20260506060511 | 12 | 0 | 0.0 | 0.0 | 0.03 | 0.33 | 0.33 | 96 | 1004.7 |
| 20260506050511 | 12 | 0 | 0.0 | 0.0 | 0.03 | 0.33 | 0.33 | 96 | 1004.8 |
| 20260506045011 | 12 | 0 | 0.0 | 0.0 | 0.03 | 0.33 | 0.33 | 96 | 1004.7 |
| 20260506043514 | 12 | 0 | 0.0 | 0.0 | 0.03 | 0.33 | 0.33 | 96 | 1004.7 |
| 20260506035010 | 12 | 0 | 0.0 | 0.0 | 0.03 | 0.30 | 0.30 | 96 | 1004.9 |
| 20260506033513 | 12 | 0 | 0.0 | 0.0 | 0.05 | 0.30 | 0.30 | 95 | 1005.0 |
| 20260506032013 | 12 | 0 | 0.0 | 0.0 | 0.03 | 0.28 | 0.28 | 95 | 1004.9 |
| 20260506030510 | 12 | 0 | 0.0 | 0.0 | 0.03 | 0.28 | 0.28 | 95 | 1005.0 |
| 20260506025013 | 12 | 0 | 0.0 | 0.0 | 0.05 | 0.28 | 0.28 | 95 | 1005.1 |
| 20260506022010 | 12 | 0 | 0.0 | 0.0 | 0.03 | 0.25 | 0.25 | 95 | 1005.1 |
| 20260506015009 | 12 | 0 | 0.0 | 0.0 | 0.05 | 0.23 | 0.23 | 95 | 1005.1 |
| 20260506013510 | 12 | 0 | 0.0 | 0.0 | 0.05 | 0.23 | 0.23 | 94 | 1005.3 |
| 20260506010512 | 12 | 0 | 0.0 | 0.0 | 0.05 | 0.23 | 0.23 | 94 | 1005.3 |
| 20260506005014 | 12 | 0 | 0.0 | 0.0 | 0.05 | 0.20 | 0.20 | 95 | 1005.5 |
| 20260506003517 | 13 | 0 | 0.0 | 0.0 | 0.05 | 0.20 | 0.20 | 94 | 1005.5 |
| 20260506002014 | 13 | 0 | 0.0 | 0.0 | 0.05 | 0.18 | 0.18 | 94 | 1005.7 |
| 20260506000514 | 13 | 0 | 0.0 | 0.0 | 0.08 | 0.18 | 0.18 | 94 | 1005.7 |
| 20260505233514 | 13 | 0 | 0.0 | 0.0 | 0.08 | 0.15 | 0.15 | 94 | 1005.8 |
| 20260505232013 | 13 | 0 | 0.0 | 0.0 | 0.08 | 0.13 | 0.13 | 94 | 1005.9 |
| 20260505230514 | 13 | 0 | 0.0 | 0.0 | 0.08 | 0.10 | 0.10 | 94 | 1006.0 |
| 20260505225013 | 14 | 0 | 0.0 | 0.0 | 0.08 | 0.08 | 0.08 | 94 | 1006.1 |
| 20260505223516 | 14 | 0 | 0.0 | 0.0 | 0.05 | 0.05 | 0.05 | 94 | 1005.9 |
| 20260505220513 | 14 | 0 | 0.0 | 0.0 | 0.03 | 0.03 | 0.03 | 93 | 1005.9 |
| 20260505215013 | 14 | 0 | 0.0 | 0.0 | 0.10 | 0.51 | 0.51 | 93 | 1006.0 |
| 20260505213513 | 14 | 0 | 0.0 | 0.0 | 0.10 | 0.51 | 0.51 | 93 | 1006.2 |
| 20260505212013 | 14 | 0 | 0.0 | 0.0 | 0.10 | 0.48 | 0.48 | 92 | 1006.2 |
| 20260505210512 | 14 | 0 | 0.0 | 0.0 | 0.13 | 0.46 | 0.46 | 92 | 1006.2 |
| 20260505205012 | 14 | 0 | 0.0 | 0.0 | 0.08 | 0.43 | 0.43 | 91 | 1006.3 |
| 20260505203512 | 15 | 0 | 0.0 | 0.0 | 0.05 | 0.41 | 0.41 | 91 | 1006.2 |
| 20260505202012 | 15 | 0 | 0.0 | 0.0 | 0.05 | 0.38 | 0.38 | 91 | 1006.2 |
| 20260505195012 | 15 | 0 | 0.0 | 0.0 | 0.00 | 0.33 | 0.33 | 91 | 1006.0 |
| 20260505193512 | 15 | 0 | 0.0 | 0.0 | 0.00 | 0.33 | 0.33 | 90 | 1005.9 |
| 20260505192012 | 16 | 0 | 0.0 | 0.0 | 0.00 | 0.33 | 0.33 | 90 | 1006.0 |
| 20260505190511 | 16 | 0 | 0.0 | 0.0 | 0.00 | 0.33 | 0.33 | 90 | 1005.8 |
| 20260505183511 | 16 | 0 | 0.0 | 0.0 | 0.00 | 0.33 | 0.33 | 90 | 1005.6 |
| 20260505182012 | 16 | 0 | 0.0 | 0.0 | 0.00 | 0.33 | 0.33 | 90 | 1005.7 |
| 20260505175011 | 16 | 0 | 0.0 | 0.0 | 0.00 | 0.33 | 0.33 | 89 | 1005.6 |
| 20260505173511 | 16 | 0 | 0.0 | 0.0 | 0.00 | 0.33 | 0.33 | 89 | 1005.7 |
| 20260505172011 | 16 | 0 | 0.0 | 0.0 | 0.00 | 0.33 | 0.33 | 89 | 1005.7 |
| 20260505170510 | 16 | 0 | 0.0 | 0.0 | 0.00 | 0.33 | 0.33 | 88 | 1005.8 |
| 20260505165013 | 16 | 0 | 0.0 | 0.0 | 0.00 | 0.33 | 0.33 | 87 | 1005.8 |
| 20260505163510 | 16 | 0 | 0.0 | 0.0 | 0.00 | 0.33 | 0.33 | 88 | 1006.0 |
| 20260505162010 | 16 | 0 | 0.0 | 0.0 | 0.00 | 0.33 | 0.33 | 88 | 1006.0 |
| 20260505152013 | 16 | 0 | 0.0 | 0.0 | 0.15 | 0.33 | 0.33 | 89 | 1006.3 |
| 20260505150509 | 16 | 0 | 0.0 | 0.0 | 0.15 | 0.30 | 0.30 | 89 | 1006.4 |
| 20260505140514 | 16 | 0 | 0.0 | 0.0 | 0.15 | 0.15 | 0.15 | 87 | 1006.8 |
| 20260505125013 | 20 | 0 | 0.0 | 0.0 | 0.00 | 0.00 | 0.00 | 67 | 1006.6 |
| 20260505122016 | 20 | 0 | 0.0 | 0.0 | 0.00 | 0.00 | 0.00 | 66 | 1006.6 |
| 20260505120513 | 20 | 0 | 0.0 | 0.0 | 0.00 | 0.00 | 0.00 | 67 | 1006.4 |
| 20260505113513 | 20 | 0 | 0.0 | 0.0 | 0.00 | 0.00 | 0.00 | 68 | 1006.8 |
| 20260505112013 | 20 | 0 | 0.0 | 0.0 | 0.00 | 0.00 | 0.00 | 66 | 1006.9 |
| 20260505110512 | 20 | 0 | 0.0 | 0.0 | 0.00 | 0.00 | 0.00 | 65 | 1007.0 |
| 20260505102015 | 20 | 0 | 0.0 | 0.0 | 0.00 | 0.00 | 0.00 | 66 | 1007.4 |
| 20260505095012 | 20 | 0 | 0.0 | 0.0 | 0.00 | 0.00 | 0.00 | 67 | 1007.4 |
| 20260505093512 | 20 | 0 | 0.0 | 0.0 | 0.00 | 0.00 | 0.00 | 67 | 1007.5 |
| 20260505092011 | 19 | 0 | 0.0 | 0.0 | 0.00 | 0.00 | 0.00 | 67 | 1007.6 |
| 20260505090511 | 19 | 0 | 0.0 | 0.0 | 0.00 | 0.00 | 0.00 | 68 | 1007.7 |
| 20260505083511 | 18 | 0 | 0.0 | 0.0 | 0.00 | 0.00 | 0.00 | 70 | 1008.0 |
| 20260505082014 | 18 | 0 | 0.0 | 0.0 | 0.00 | 0.00 | 0.00 | 71 | 1008.0 |
| 20260505075014 | 18 | 0 | 0.0 | 0.0 | 0.00 | 0.00 | 0.00 | 73 | 1008.2 |
| 20260505073511 | 18 | 0 | 0.0 | 0.0 | 0.00 | 0.00 | 0.00 | 76 | 1008.3 |
| 20260505072010 | 17 | 0 | 0.0 | 0.0 | 0.00 | 0.00 | 0.00 | 79 | 1008.4 |
| 20260505070511 | 16 | 0 | 0.0 | 0.0 | 0.00 | 0.00 | 0.00 | 83 | 1008.3 |